Regional Weather Roundup
Issued by NWS Cleveland, OH

Home | Current Version | Previous Version | Graphics & Text | Print | Product List | Glossary On
Versions: 1 2 3 4 5 6 7 8 9 10 11 12 13 14 15 16 17 18 19 20 21 22 23 24 25 26 27 28 29 30 31 32 33 34 35 36 37 38 39 40 41 42 43 44 45 46 47 48 49 50
000
ASUS41 KCLE 211410
RWRCLE
OHIO REGIONAL WEATHER ROUNDUP
NATIONAL WEATHER SERVICE CLEVELAND, OH
1000 AM EDT SAT APR 21 2018

NOTE: "FAIR" INDICATES FEW OR NO CLOUDS BELOW 12,000 FEET WITH NO
SIGNIFICANT WEATHER AND/OR OBSTRUCTIONS TO VISIBILITY.

OHZ001>008-015>018-024>027-034-035-043-044-211500-
   NORTHWEST OHIO

CITY           SKY/WX    TMP DP  RH WIND       PRES   REMARKS
DEFIANCE       FAIR      44  29  55 SE3       30.47F
FINDLAY        FAIR      47  21  35 SE7       30.46F
TOLEDO EXPRESS FAIR      49  27  42 SE6       30.48F
TOLEDO EXEC    FAIR      48  27  44 SE6       30.49F
LIMA           FAIR      47  24  40 E7        30.46S
$$

OHZ009>014-019>023-028>033-038-089-211500-
   NORTHEAST OHIO

CITY           SKY/WX    TMP DP  RH WIND       PRES   REMARKS
CLE-HOPKINS    PTSUNNY   46  22  38 CALM      30.51S
CLE-LAKEFRONT  FAIR      41  29  62 N6        30.48F
CUY CO. ARPT   MOSUNNY   45  18  33 E6        30.49S
LORAIN-ELYRIA  FAIR      44  22  41 MISG      30.49S
ASHTABULA      FAIR      41  31  67 CALM      30.49F
AKRON-CANTON   FAIR      45  21  38 CALM      30.47S
WOOSTER        FAIR      43  23  45 VRB3      30.48S
MANSFIELD      FAIR      46  18  32 E7        30.46S
YOUNGSTOWN     FAIR      43  27  53 CALM      30.47F
$$

OHZ042-051>053-060>062-070>072-077>081-211500-
  SOUTHWEST OHIO

CITY           SKY/WX    TMP DP  RH WIND       PRES   REMARKS
CINC-COVINGTON PTSUNNY   49  23  36 E8        30.44R
CINC-LUNKEN    FAIR      49  30  48 N5        30.46S
HAMILTON       FAIR      50  22  33 SE6       30.46S
DAYTON         PTSUNNY   46  24  42 E6        30.45S
WRIGHT-PAT AFB CLOUDY    47  22  36 E7        30.45F
DAYTON GENERAL FAIR      48  23  37 E9        30.44R
WILMINGTON     FAIR      46  28  49 E10       30.44F
$$

OHZ036-037-039>041-045>050-054>059-063>069-073>076-082>088-211500-
  CENTRAL AND SOUTHEAST OHIO

CITY           SKY/WX    TMP DP  RH WIND       PRES   REMARKS
COLUMBUS       PTSUNNY   47  23  38 E6        30.46F
OSU AIRPORT    FAIR      45  21  38 E5        30.46F
BOLTON FIELD   SUNNY     45  25  45 E6        30.46F
RICKENBACK AFB FAIR      44  26  49 E7        30.46S
NEWARK         FAIR      45  25  45 NE6       30.46F
MARION         FAIR      45  21  38 SE8       30.47F
LANCASTER      FAIR      45  27  49 E6        30.46F
ZANESVILLE     FAIR      45  27  49 E6        30.47R
NEW PHILLY     FAIR      44  24  45 CALM      30.48F
$$




USA.gov is the U.S. government's official web portal to all federal, state and local government web resources and services.